FW8690 Weather Reports


time (UTC)temp
C
wind
direction
speed
KPH
gust
KPH
rain 1hr
cm
rain 24hr
cm
rain mn
cm
humidity
%
barometer
mb
20260507155504 15 0 0.0 0.0 0.00 0.00 0.00 55 1014.7
20260507155004 15 309 0.0 1.6 0.00 0.00 0.00 55 1014.7
20260507154504 15 309 0.0 1.6 0.00 0.00 0.00 55 1014.7
20260507154004 15 0 0.0 0.0 0.00 0.00 0.00 54 1014.7
20260507153504 15 0 0.0 0.0 0.00 0.00 0.00 56 1014.7
20260507153003 15 0 0.0 0.0 0.00 0.00 0.00 54 1014.8
20260507152714 15 0 0.0 0.0 0.00 0.00 0.00 54 1014.7
20260507152004 15 308 0.0 1.6 0.00 0.00 0.00 56 1014.8
20260507151504 15 308 0.0 1.6 0.00 0.00 0.00 55 1014.9
20260507151003 15 308 0.0 1.6 0.00 0.00 0.00 55 1014.9
20260507150504 15 309 0.0 1.6 0.00 0.00 0.00 56 1015.1
20260507150004 15 0 0.0 0.0 0.00 0.00 0.00 56 1015.0
20260507145503 15 0 0.0 0.0 0.00 0.00 0.00 54 1015.2
20260507145003 15 308 0.0 1.6 0.00 0.00 0.00 55 1015.2
20260507144503 15 308 0.0 1.6 0.00 0.00 0.00 54 1015.2
20260507144003 15 0 0.0 0.0 0.00 0.00 0.00 53 1015.2
20260507143503 15 0 0.0 0.0 0.00 0.00 0.00 54 1015.2
20260507143003 15 308 0.0 0.0 0.00 0.00 0.00 53 1015.3
20260507142713 15 308 0.0 0.0 0.00 0.00 0.00 53 1015.3
20260507142003 16 0 0.0 0.0 0.00 0.00 0.00 50 1015.4
20260507141503 15 308 0.0 1.6 0.00 0.00 0.00 53 1015.5
20260507141003 15 308 0.0 1.6 0.00 0.00 0.00 51 1015.6
20260507140503 15 308 0.0 1.6 0.00 0.00 0.00 51 1015.5
20260507140004 15 308 0.0 1.6 0.00 0.00 0.00 50 1015.5
20260507135713 15 308 0.0 1.6 0.00 0.00 0.00 50 1015.5
20260507135214 16 308 0.0 1.6 0.00 0.00 0.00 49 1015.5
20260507134503 16 0 0.0 0.0 0.00 0.00 0.00 49 1015.4
20260507134004 16 308 0.0 0.0 0.00 0.00 0.00 50 1015.4
20260507133503 16 308 0.0 0.0 0.00 0.00 0.00 48 1015.5
20260507133003 16 0 0.0 0.0 0.00 0.00 0.00 49 1015.4
20260507132503 15 0 0.0 0.0 0.00 0.00 0.00 50 1015.5
20260507132214 15 0 0.0 0.0 0.00 0.00 0.00 49 1015.5
20260507131504 15 308 0.0 1.6 0.00 0.00 0.00 48 1015.5
20260507131004 16 308 0.0 1.6 0.00 0.00 0.00 46 1015.6
20260507130713 16 0 0.0 0.0 0.00 0.00 0.00 47 1015.6
20260507130004 16 0 0.0 0.0 0.00 0.00 0.00 47 1015.6
20260507125504 16 308 0.0 1.6 0.00 0.00 0.00 50 1015.5
20260507125004 16 308 0.0 1.6 0.00 0.00 0.00 50 1015.5
20260507124503 16 0 0.0 0.0 0.00 0.00 0.00 52 1015.5
20260507124003 16 309 0.0 1.6 0.00 0.00 0.00 50 1015.5
20260507123503 16 309 0.0 1.6 0.00 0.00 0.00 51 1015.6
20260507123004 16 308 0.0 1.6 0.00 0.00 0.00 51 1015.6
20260507122504 16 308 0.0 1.6 0.00 0.00 0.00 51 1015.6
20260507122214 16 308 0.0 1.6 0.00 0.00 0.00 51 1015.6
20260507121504 16 308 0.0 1.6 0.00 0.00 0.00 51 1015.7
20260507121003 16 0 0.0 0.0 0.00 0.00 0.00 52 1015.6
20260507120503 16 0 0.0 0.0 0.00 0.00 0.00 58 1015.6
20260507120003 15 308 0.0 1.6 0.00 0.00 0.00 55 1015.6
20260507115504 15 308 0.0 1.6 0.00 0.00 0.00 56 1015.7
20260507115004 15 0 0.0 0.0 0.00 0.00 0.00 54 1015.8
20260507114504 15 308 0.0 0.0 0.00 0.00 0.00 56 1015.7
20260507114004 16 308 0.0 0.0 0.00 0.00 0.00 55 1015.8
20260507113504 16 0 0.0 0.0 0.00 0.00 0.00 59 1015.7
20260507113003 16 0 0.0 0.0 0.00 0.00 0.00 59 1015.7
20260507112503 16 0 0.0 0.0 0.00 0.00 0.00 59 1015.7
20260507112003 16 308 0.0 0.0 0.00 0.00 0.00 57 1015.7
20260507111504 15 308 0.0 0.0 0.00 0.00 0.00 58 1015.7
20260507111003 15 0 0.0 0.0 0.00 0.00 0.00 58 1015.7
20260507110504 15 308 0.0 1.6 0.00 0.00 0.00 59 1015.7
20260507110213 15 308 0.0 1.6 0.00 0.00 0.00 60 1015.8
20260507105504 15 0 0.0 0.0 0.00 0.00 0.00 55 1015.8
20260507105004 15 0 0.0 0.0 0.00 0.00 0.00 59 1015.8
20260507104504 15 309 0.0 1.6 0.00 0.00 0.00 57 1015.8
20260507104004 15 309 0.0 1.6 0.00 0.00 0.00 58 1015.9
20260507103503 15 0 0.0 0.0 0.00 0.00 0.00 59 1015.8
20260507103003 15 0 0.0 0.0 0.00 0.00 0.00 62 1015.8
20260507102503 15 309 0.0 1.6 0.00 0.00 0.00 59 1015.9
20260507102003 14 309 0.0 1.6 0.00 0.00 0.00 59 1015.8
20260507101503 14 0 0.0 0.0 0.00 0.00 0.00 63 1015.9
20260507101003 14 308 0.0 1.6 0.00 0.00 0.00 64 1015.9
20260507100503 14 308 0.0 1.6 0.00 0.00 0.00 63 1016.0
20260507100003 13 308 0.0 0.0 0.00 0.00 0.00 64 1015.9
20260507095503 13 308 0.0 1.6 0.00 0.00 0.00 65 1016.0
20260507095003 13 308 0.0 1.6 0.00 0.00 0.00 64 1015.8
20260507094503 14 308 0.0 1.6 0.00 0.00 0.00 66 1015.7
20260507094003 14 308 0.0 1.6 0.00 0.00 0.00 67 1015.6
20260507093503 13 0 0.0 0.0 0.00 0.00 0.00 68 1015.6
20260507093003 13 308 0.0 1.6 0.00 0.00 0.00 70 1015.7
20260507092503 13 308 0.0 1.6 0.00 0.00 0.00 69 1015.8
20260507092003 13 0 0.0 0.0 0.00 0.00 0.00 71 1015.8
20260507091714 13 0 0.0 0.0 0.00 0.00 0.00 70 1015.7
20260507091003 13 308 0.0 1.6 0.00 0.00 0.00 70 1015.6
20260507090713 13 308 0.0 1.6 0.00 0.00 0.00 71 1015.6
20260507090214 13 0 0.0 0.0 0.00 0.00 0.00 72 1015.7
20260507085503 13 0 0.0 0.0 0.00 0.00 0.00 73 1015.7
20260507085004 13 0 0.0 0.0 0.00 0.00 0.00 77 1015.7
20260507084504 13 308 0.0 0.0 0.00 0.00 0.00 77 1015.8
20260507084214 13 308 0.0 0.0 0.00 0.00 0.00 77 1015.7
20260507083713 12 0 0.0 0.0 0.00 0.00 0.00 78 1015.7
20260507083004 12 0 0.0 0.0 0.00 0.00 0.00 80 1015.7
20260507082503 12 0 0.0 0.0 0.00 0.00 0.00 80 1015.7
20260507082004 12 0 0.0 0.0 0.00 0.00 0.00 81 1015.8
20260507081503 11 308 0.0 1.6 0.00 0.00 0.00 81 1015.7
20260507081004 11 308 0.0 1.6 0.00 0.00 0.00 81 1015.8
20260507080504 11 0 0.0 0.0 0.00 0.00 0.00 81 1015.8
20260507080214 11 0 0.0 0.0 0.00 0.00 0.00 81 1015.7
20260507075504 11 0 0.0 0.0 0.00 0.00 0.00 81 1015.7
20260507075214 11 0 0.0 0.0 0.00 0.00 0.00 81 1015.6
20260507074503 11 0 0.0 0.0 0.00 0.00 0.00 82 1015.7
20260507074214 11 0 0.0 0.0 0.00 0.00 0.00 82 1015.7
20260507073503 11 0 0.0 0.0 0.00 0.00 0.00 82 1015.6
20260507073004 10 0 0.0 0.0 0.00 0.00 0.00 82 1015.6
20260507072715 10 0 0.0 0.0 0.00 0.00 0.00 82 1015.6
20260507072004 10 0 0.0 0.0 0.00 0.00 0.00 81 1015.5
20260507071504 10 0 0.0 0.0 0.00 0.00 0.00 82 1015.5
20260507071004 10 0 0.0 0.0 0.00 0.00 0.00 82 1015.4
20260507070504 10 0 0.0 0.0 0.00 0.00 0.00 82 1015.4
20260507070007 10 0 0.0 0.0 0.00 0.00 0.00 82 1015.3
20260507065712 10 0 0.0 0.0 0.00 0.00 0.00 82 1015.2
20260507065213 10 0 0.0 0.0 0.00 0.00 0.00 81 1015.2
20260507064504 9 0 0.0 0.0 0.00 0.00 0.00 81 1015.2
20260507064004 9 0 0.0 0.0 0.00 0.00 0.00 81 1015.1
20260507063504 9 0 0.0 0.0 0.00 0.00 0.00 81 1015.2
20260507063004 9 0 0.0 0.0 0.00 0.00 0.00 81 1015.2
20260507062714 8 0 0.0 0.0 0.00 0.00 0.00 81 1015.1
20260507062003 8 0 0.0 0.0 0.00 0.00 0.00 81 1015.2
20260507061504 8 0 0.0 0.0 0.00 0.00 0.00 81 1015.2
20260507061003 8 308 0.0 1.6 0.00 0.00 0.00 81 1015.2
20260507060503 8 308 0.0 1.6 0.00 0.00 0.00 82 1015.1
20260507060003 8 0 0.0 0.0 0.00 0.00 0.00 82 1015.0
20260507055504 8 0 0.0 0.0 0.00 0.00 0.00 82 1015.0
20260507055004 8 0 0.0 0.0 0.00 0.00 0.00 82 1015.1
20260507054504 8 0 0.0 0.0 0.00 0.00 0.00 83 1015.0
20260507054004 7 0 0.0 0.0 0.00 0.00 0.00 83 1015.0
20260507053504 7 0 0.0 0.0 0.00 0.00 0.00 83 1014.9
20260507053004 7 0 0.0 0.0 0.00 0.00 0.00 84 1015.1
20260507052503 7 0 0.0 0.0 0.00 0.00 0.00 84 1015.0
20260507052003 7 0 0.0 0.0 0.00 0.00 0.00 85 1014.9
20260507051714 7 0 0.0 0.0 0.00 0.00 0.00 85 1015.0
20260507051004 7 0 0.0 0.0 0.00 0.00 0.00 84 1014.9
20260507050504 7 0 0.0 0.0 0.00 0.00 0.00 84 1014.9
20260507050004 6 0 0.0 0.0 0.00 0.00 0.00 84 1014.8
20260507045504 6 0 0.0 0.0 0.00 0.00 0.00 84 1014.8
20260507045213 6 0 0.0 0.0 0.00 0.00 0.00 84 1014.8
20260507044714 6 0 0.0 0.0 0.00 0.00 0.00 84 1014.9
20260507044003 7 0 0.0 0.0 0.00 0.00 0.00 83 1014.8
20260507043503 7 0 0.0 0.0 0.00 0.00 0.00 83 1014.8
20260507043003 7 0 0.0 0.0 0.00 0.00 0.00 82 1014.6
20260507042504 7 0 0.0 0.0 0.00 0.00 0.00 82 1014.7
20260507042004 7 0 0.0 0.0 0.00 0.00 0.00 82 1014.7
20260507041714 7 0 0.0 0.0 0.00 0.00 0.00 81 1014.7
20260507041004 8 0 0.0 0.0 0.00 0.00 0.00 81 1014.8
20260507040503 8 0 0.0 0.0 0.00 0.00 0.00 82 1014.8
20260507040214 8 0 0.0 0.0 0.00 0.00 0.00 82 1014.8
20260507035503 8 0 0.0 0.0 0.00 0.00 0.00 82 1014.7
20260507035003 7 0 0.0 0.0 0.00 0.00 0.00 82 1014.7
20260507034504 7 0 0.0 0.0 0.00 0.00 0.00 82 1014.6
20260507034003 8 0 0.0 0.0 0.00 0.00 0.00 82 1014.7
20260507033504 8 0 0.0 0.0 0.00 0.00 0.00 82 1014.5
20260507033004 8 0 0.0 0.0 0.00 0.00 0.00 82 1014.5
20260507032713 8 0 0.0 0.0 0.00 0.00 0.00 82 1014.5
20260507032004 8 0 0.0 0.0 0.00 0.00 0.00 82 1014.5
20260507031713 8 0 0.0 0.0 0.00 0.00 0.00 82 1014.6
20260507031003 8 0 0.0 0.0 0.00 0.00 0.00 83 1014.5
20260507030504 8 0 0.0 0.0 0.00 0.00 0.00 83 1014.5
20260507030004 8 0 0.0 0.0 0.00 0.00 0.00 83 1014.6
20260507025504 8 0 0.0 0.0 0.00 0.00 0.00 83 1014.6
20260507025004 8 0 0.0 0.0 0.00 0.00 0.00 84 1014.6
20260507024713 8 0 0.0 0.0 0.00 0.00 0.00 84 1014.6
20260507024003 8 0 0.0 0.0 0.00 0.00 0.00 84 1014.5
20260507023503 8 0 0.0 0.0 0.00 0.00 0.00 84 1014.6
20260507023214 8 0 0.0 0.0 0.00 0.00 0.00 84 1014.4
20260507022503 8 0 0.0 0.0 0.00 0.00 0.00 85 1014.5
20260507022003 8 0 0.0 0.0 0.00 0.00 0.00 85 1014.5
20260507021503 8 0 0.0 0.0 0.00 0.00 0.00 85 1014.5
20260507021003 8 0 0.0 0.0 0.00 0.00 0.00 85 1014.5
20260507020504 8 0 0.0 0.0 0.00 0.00 0.00 85 1014.5
20260507020003 8 0 0.0 0.0 0.00 0.00 0.00 85 1014.5
20260507015503 8 0 0.0 0.0 0.00 0.00 0.00 85 1014.5
20260507015003 8 0 0.0 0.0 0.00 0.00 0.00 85 1014.5
20260507014503 8 0 0.0 0.0 0.00 0.00 0.00 85 1014.6
20260507014214 8 0 0.0 0.0 0.00 0.00 0.00 85 1014.5
20260507013504 8 0 0.0 0.0 0.00 0.00 0.00 85 1014.5
20260507013004 8 0 0.0 0.0 0.00 0.00 0.00 85 1014.6
20260507012504 8 0 0.0 0.0 0.00 0.00 0.00 85 1014.6
20260507012004 8 0 0.0 0.0 0.00 0.00 0.00 85 1014.7
20260507011504 8 0 0.0 0.0 0.00 0.00 0.00 84 1014.5
20260507011003 8 0 0.0 0.0 0.00 0.00 0.00 84 1014.6
20260507010503 8 0 0.0 0.0 0.00 0.00 0.00 84 1014.6
20260507010004 8 0 0.0 0.0 0.00 0.00 0.00 84 1014.5
20260507005504 8 0 0.0 0.0 0.00 0.00 0.00 84 1014.6
20260507005004 8 0 0.0 0.0 0.00 0.00 0.00 84 1014.5
20260507004504 8 0 0.0 0.0 0.00 0.00 0.00 84 1014.5
20260507004003 8 0 0.0 0.0 0.00 0.00 0.00 84 1014.5
20260507003714 8 0 0.0 0.0 0.00 0.00 0.00 84 1014.6
20260507003004 8 0 0.0 0.0 0.00 0.00 0.00 84 1014.6
20260507002714 8 0 0.0 0.0 0.00 0.00 0.00 84 1014.7
20260507002003 8 0 0.0 0.0 0.00 0.00 0.00 83 1014.7
20260507001503 8 0 0.0 0.0 0.00 0.00 0.00 83 1014.7
20260507001004 8 0 0.0 0.0 0.00 0.00 0.00 83 1014.7
20260507000504 9 0 0.0 0.0 0.00 0.00 0.00 83 1014.9
20260507000213 9 0 0.0 0.0 0.00 0.00 0.00 83 1014.8
20260506235504 9 0 0.0 0.0 0.00 0.00 0.00 82 1014.8
20260506235004 9 0 0.0 0.0 0.00 0.00 0.00 82 1014.8
20260506234504 9 0 0.0 0.0 0.00 0.00 0.00 82 1014.8
20260506234003 9 0 0.0 0.0 0.00 0.00 0.00 82 1014.8
20260506233503 9 0 0.0 0.0 0.00 0.00 0.00 82 1014.8
20260506233003 9 0 0.0 0.0 0.00 0.00 0.00 82 1014.7
20260506232714 9 0 0.0 0.0 0.00 0.00 0.00 82 1014.7
20260506232004 9 0 0.0 0.0 0.00 0.00 0.00 82 1014.8
20260506231504 9 0 0.0 0.0 0.00 0.00 0.00 82 1014.7
20260506231004 9 0 0.0 0.0 0.00 0.00 0.00 82 1014.7
20260506230503 9 0 0.0 0.0 0.00 0.00 0.00 82 1014.8
20260506230004 9 0 0.0 0.0 0.00 0.00 0.00 82 1014.8
20260506225714 9 0 0.0 0.0 0.00 0.00 0.00 82 1014.7
20260506225003 9 0 0.0 0.0 0.00 0.00 0.00 82 1014.8
20260506224503 9 0 0.0 0.0 0.00 0.00 0.00 82 1014.8
20260506224004 9 0 0.0 0.0 0.00 0.00 0.00 82 1014.8
20260506223504 9 0 0.0 0.0 0.00 0.00 0.00 82 1014.7
20260506223004 9 0 0.0 0.0 0.00 0.00 0.00 82 1014.7
20260506222504 10 0 0.0 0.0 0.00 0.00 0.00 82 1014.7
20260506222004 10 0 0.0 0.0 0.00 0.00 0.00 82 1014.7
20260506221504 10 0 0.0 0.0 0.00 0.00 0.00 82 1014.7
20260506221003 10 0 0.0 0.0 0.00 0.00 0.00 82 1014.6
20260506220503 10 0 0.0 0.0 0.00 0.00 0.00 81 1014.7
20260506220003 10 0 0.0 0.0 0.00 0.00 0.00 81 1014.7
20260506215713 10 0 0.0 0.0 0.00 0.00 0.00 81 1014.7
20260506215004 10 0 0.0 0.0 0.00 0.00 0.00 81 1014.6
20260506214713 10 0 0.0 0.0 0.00 0.00 0.00 81 1014.6
20260506214004 10 0 0.0 0.0 0.00 0.00 0.00 81 1014.7
20260506213713 10 0 0.0 0.0 0.00 0.00 0.00 81 1014.6
20260506213004 10 0 0.0 0.0 0.00 0.00 0.00 81 1014.7
20260506212504 10 0 0.0 0.0 0.00 0.00 0.00 81 1014.7
20260506212003 10 0 0.0 0.0 0.00 0.00 0.00 80 1014.7
20260506211504 10 0 0.0 0.0 0.00 0.00 0.00 80 1014.7
20260506211004 10 0 0.0 0.0 0.00 0.00 0.00 80 1014.6
20260506210503 10 0 0.0 0.0 0.00 0.00 0.00 79 1014.6
20260506210004 10 0 0.0 0.0 0.00 0.00 0.00 79 1014.6
20260506205504 10 0 0.0 0.0 0.00 0.00 0.00 79 1014.7
20260506205003 10 0 0.0 0.0 0.00 0.00 0.00 79 1014.5
20260506204713 10 0 0.0 0.0 0.00 0.00 0.00 78 1014.5
20260506204003 10 0 0.0 0.0 0.00 0.00 0.00 78 1014.5
20260506203503 10 0 0.0 0.0 0.00 0.00 0.00 78 1014.6
20260506203004 10 0 0.0 0.0 0.00 0.00 0.00 78 1014.5
20260506202504 11 0 0.0 0.0 0.00 0.00 0.00 78 1014.5
20260506202004 11 0 0.0 0.0 0.00 0.00 0.00 78 1014.4
20260506201504 11 0 0.0 0.0 0.00 0.00 0.00 77 1014.4
20260506201003 11 0 0.0 0.0 0.00 0.00 0.00 77 1014.4
20260506200504 11 0 0.0 0.0 0.00 0.00 0.00 77 1014.4
20260506200004 11 0 0.0 0.0 0.00 0.00 0.00 77 1014.3
20260506195503 11 0 0.0 0.0 0.00 0.00 0.00 76 1014.2
20260506195213 11 0 0.0 0.0 0.00 0.00 0.00 76 1014.2
20260506194504 11 0 0.0 0.0 0.00 0.00 0.00 76 1014.1
20260506194213 11 0 0.0 0.0 0.00 0.00 0.00 76 1014.1
20260506193504 12 0 0.0 0.0 0.00 0.00 0.00 75 1014.0
20260506193213 12 0 0.0 0.0 0.00 0.00 0.00 75 1014.1
20260506192714 12 0 0.0 0.0 0.00 0.00 0.00 74 1014.1
20260506192004 12 0 0.0 0.0 0.00 0.00 0.00 73 1014.1
20260506191503 12 0 0.0 0.0 0.00 0.00 0.00 72 1014.0
20260506191213 12 0 0.0 0.0 0.00 0.00 0.00 72 1013.9
20260506190503 12 0 0.0 0.0 0.00 0.00 0.00 70 1014.0
20260506190213 12 0 0.0 0.0 0.00 0.00 0.00 69 1013.9
20260506185504 12 0 0.0 0.0 0.00 0.00 0.00 66 1014.0
20260506185004 12 0 0.0 0.0 0.00 0.00 0.00 63 1013.9
20260506184503 12 0 0.0 0.0 0.00 0.00 0.00 60 1014.0
20260506184213 12 0 0.0 0.0 0.00 0.00 0.00 60 1013.9
20260506183503 12 0 0.0 0.0 0.00 0.00 0.00 58 1013.8
20260506183003 12 0 0.0 0.0 0.00 0.00 0.00 59 1013.8
20260506182503 13 0 0.0 0.0 0.00 0.00 0.00 59 1013.7
20260506182003 13 0 0.0 0.0 0.00 0.00 0.00 60 1013.7
20260506181504 13 309 0.0 1.6 0.00 0.00 0.00 59 1013.7
20260506181004 13 309 0.0 1.6 0.00 0.00 0.00 59 1013.8
20260506180504 13 0 0.0 0.0 0.00 0.00 0.00 59 1013.7
20260506180004 13 0 0.0 0.0 0.00 0.00 0.00 58 1013.7
20260506175503 13 0 0.0 0.0 0.00 0.00 0.00 59 1013.7
20260506175003 13 0 0.0 0.0 0.00 0.00 0.00 59 1013.7
20260506174503 13 0 0.0 0.0 0.00 0.00 0.00 59 1013.6
20260506174003 13 0 0.0 0.0 0.00 0.00 0.00 58 1013.5
20260506173503 13 0 0.0 0.0 0.00 0.00 0.00 58 1013.6
20260506173004 13 0 0.0 0.0 0.00 0.00 0.00 58 1013.6
20260506172504 13 0 0.0 0.0 0.00 0.00 0.00 55 1013.6
20260506172004 13 0 0.0 0.0 0.00 0.00 0.00 56 1013.5
20260506171504 13 0 0.0 0.0 0.00 0.00 0.00 56 1013.5
20260506171003 13 0 0.0 0.0 0.00 0.00 0.00 56 1013.4
20260506170503 13 0 0.0 0.0 0.00 0.00 0.00 57 1013.4
20260506170004 13 0 0.0 0.0 0.00 0.00 0.00 55 1013.3
20260506165503 13 0 0.0 0.0 0.00 0.00 0.00 56 1013.4
20260506165004 13 0 0.0 0.0 0.00 0.00 0.00 56 1013.3
20260506164504 13 0 0.0 0.0 0.00 0.00 0.00 56 1013.3
20260506164214 13 0 0.0 0.0 0.00 0.00 0.00 57 1013.4
20260506163503 14 0 0.0 0.0 0.00 0.00 0.00 55 1013.4
20260506163004 14 0 0.0 0.0 0.00 0.00 0.00 55 1013.4
20260506162504 14 0 0.0 0.0 0.00 0.00 0.00 56 1013.5
20260506162004 14 0 0.0 0.0 0.00 0.00 0.00 55 1013.5
20260506161503 15 0 0.0 0.0 0.00 0.00 0.00 55 1013.4
20260506161003 15 0 0.0 0.0 0.00 0.00 0.00 53 1013.3
20260506160504 15 0 0.0 0.0 0.00 0.00 0.00 53 1013.3
20260506160004 15 0 0.0 0.0 0.00 0.00 0.00 52 1013.1